Regional Weather Roundup
Issued by NWS Sterling, VA

Current Version | Previous Version | Graphics & Text | Print | Product List | Glossary On
Versions: 1 2 3 4 5 6 7 8 9 10 11 12 13 14 15 16 17 18 19 20 21 22 23 24 25 26 27 28 29 30 31 32 33 34 35 36 37 38 39 40 41 42 43 44 45 46
000
ASUS41 KLWX 070912
RWRLWX

REGIONAL WEATHER ROUNDUP
NATIONAL WEATHER SERVICE BALTIMORE MD/WASHINGTON DC
400 AM EST SUN MAR 07 2021

Note: "FAIR" indicates few or no clouds below 12,000 feet
with no significant weather and/or obstructions to visibility.
 TC=TEMPERATURE CELSIUS

 * =Non NWS site. Station does not report precipitation (e.g. rain,
    snow, etc.), thunder, or fog.

DCZ001-MDZ009-015-VAZ040>042-051-053>054-071000-
WASHINGTON METRO

CITY           SKY/WX    TMP DP  RH WIND       PRES   REMARKS
WASHINGTON NAT PTCLDY    32  15  49 NW10      30.32R WCI  24
DULLES         CLEAR     23  15  71 CALM      30.30R
ANDREWS AFB    CLEAR     27  17  65 NW5       30.29R WCI  21
FT BELVOIR     CLEAR     24  18  78 CALM      30.32R
QUANTICO       CLEAR     28  21  75 W8        30.33R WCI  20
COLLEGE PARK*  CLEAR     23  17  76 CALM      30.30R
LEESBURG*      CLEAR     27  19  74 N5        30.31S WCI  21
MANASSAS*      CLEAR     19  17  92 CALM      30.32R
GAITHERSBURG*  CLEAR     25  15  66 NW3       30.29R

$$

MDZ006>007-011-014-071000-
BALTIMORE METRO

CITY           SKY/WX    TMP DP  RH WIND       PRES   REMARKS
BWI AIRPORT    CLEAR     25  16  68 W5        30.29R WCI  19
MARTIN STATE   CLEAR     28  19  69 W5        30.31S WCI  23
ANNAPOLIS      CLEAR     32  24  72 NW5       30.30R WCI  27
ABERDEEN*      CLEAR     26  16  65 CALM      30.30R
FORT MEADE*    CLEAR     23  21  93 CALM      30.33R

$$

MDZ012-015-019>023-071000-
MARYLAND EASTERN SHORE

CITY           SKY/WX    TMP DP  RH WIND       PRES   REMARKS
OCEAN CITY     CLEAR     29  20  69 NW5       30.28R WCI  24
SALISBURY      CLEAR     25  19  78 CALM      30.28R
BAY BRIDGE AP* CLEAR     32  18  55 NW10G17   30.30R WCI  24
CAMBRIDGE*     PTCLDY    25  23  93 CALM      30.30R
EASTON*        CLEAR     28  20  74 CALM      30.33R

$$

MDZ017>025-071000-
SOUTHERN MARYLAND

CITY           SKY/WX    TMP DP  RH WIND       PRES   REMARKS
PATUXENT RIVER CLEAR     28  24  85 NW5       30.30R WCI  23
ST INIGOES     CLEAR     29  21  72 CALM      30.29R
LEONARDTOWN*   CLEAR     25  21  86 CALM      30.32R

$$

MDZ003>005-071000-
NORTH CENTRAL MARYLAND

CITY           SKY/WX    TMP DP  RH WIND       PRES   REMARKS
FREDERICK*     CLEAR     21  19  93 CALM      30.31R
HAGERSTOWN APT CLEAR     26  13  57 W6        30.27S WCI  19
WESTMINSTER*   CLEAR     27  16  63 NW5       30.26R WCI  21

$$

MDZ501>502-071000-
WESTERN MARYLAND

CITY           SKY/WX    TMP DP  RH WIND       PRES   REMARKS
OAKLAND*       PTCLDY    18   9  68 CALM      30.14S
CUMBERLAND*    CLEAR     23  15  71 CALM      30.33S

$$

VAZ025>031-071000-
SHENANDOAH VALLEY

CITY           SKY/WX    TMP DP  RH WIND       PRES   REMARKS
WINCHESTER*    CLEAR     19  14  79 CALM      30.27R
FRONT ROYAL*   CLEAR     25  14  63 SE3       30.28R
LURAY*         CLEAR     23  18  80 SE3       30.27R
NEW MARKET*    CLEAR     22  17  83 CALM      30.28R
STAUNTON*      CLEAR     22  15  76 CALM      30.28S
WAYNESBORO*    CLEAR     29  10  46 N3        30.25S

$$

WVZ021-048>050-054>055-071000-
EASTERN WEST VIRGINIA PANHANDLE

CITY           SKY/WX    TMP DP  RH WIND       PRES   REMARKS
MARTINSBURG    CLEAR     21  12  68 CALM      30.28S
PETERSBURG*    CLEAR     23  17  79 W3        30.29R

$$

VAZ036>039-050-071000-
CENTRAL FOOTHILLS

CITY           SKY/WX    TMP DP  RH WIND       PRES   REMARKS
CHARLOTTESVILL CLEAR     31  14  49 N5        30.28R WCI  26
CULPEPER*      CLEAR     21  18  88 CALM      30.31S
ORANGE*        CLEAR     23  19  86 CALM      30.29R
GORDONSVILLE*  CLEAR     23  20  89 CALM      30.29R
WARRENTON*     CLEAR     19  16  86 CALM      30.30R

$$

VAZ055>057-071000-
NORTH AND CENTRAL PIEDMONT

CITY           SKY/WX    TMP DP  RH WIND       PRES   REMARKS
FREDERICKSBRG* CLEAR     26  21  81 CALM      30.31R
STAFFORD*      CLEAR     24  15  68 NW3       30.35R

$$

NCZ024-NYZ072-PAZ021-071-VAZ022-071-071000-
OTHER REGIONAL OBSERVATIONS

CITY           SKY/WX    TMP DP  RH WIND       PRES   REMARKS
NEW YORK CITY  CLOUDY    29  12  49 VRB3      30.26R
PHILADELPHIA   PTCLDY    31  13  47 NW3       30.27R
PITTSBURGH     PTCLDY    19  10  68 CALM      30.26R
ROANOKE        CLEAR     35  10  35 NE3       30.28R
RICHMOND       CLEAR     28  21  75 NE6       30.28R WCI  22
RALEIGH        CLEAR     34  18  52 N3        30.24R

$$

ANZ530>537-071000-
MARINE OBSERVATIONS

STATION/POSITION TIME  TEMP    WIND        PRES
                       AIR SEA DIR/SP/G
                 (UTC) (F)     (DEG/KT/KT) (MB)
THOMAS PT LIGHT  0900   33 39  320/ 10/ 12 1026.9R
TOLCHESTER       0830   33 40  320/ 13/ 15 1025.7R
GOOSES REEF      0818   36 39  340/ 10/ 12 1031.5F
COVE POINT       0830   36     330/ 11/ 12   N/A
BALT HARBOR      0830   32 40  350/  4/  6 1025.5R
BALT KEY BRIDGE  0830   32     300/ 10/ 12 1025.9R
WASH DC CHANNEL  0830   34 43  310/  5/ 10 1026.7R
DAHLGREN         0830   29 43  320/  2/  3 1025.6R
LEWISETTA        0830   37 41  100/  6/  7 1025.8R
SOLOMONS ISLAND  0830   31 41  330/  4/  4 1025.8R
PINEY POINT      0830           50/  5/  5   N/A
POTOMAC BUOY     0854   37 40   50/  6/  6 1026.2R
CAMBRIDGE PIER   0830   35 40  330/  5/  8 1025.8R
BISHOPS HEAD     0830   34 40  360/  3/  5 1025.8R
CHESAPEAKE CITY  0830   29 39  260/  1/  1 1025.3R

$$




USA.gov is the U.S. government's official web portal to all federal, state and local government web resources and services.